Location: Barrio de Buenos Aires
(28.4500°N, 16.2667°W)
Time: 01:10:11
(UTC+00:00)

DMSP B5D1-3 - Pass Details

Date: 24 January 2020
Orbit: 767 x 781 km, 98.5° (Epoch: 19 February)

Event Time Altitude Azimuth Distance (km) Brightness Sun altitude
Rises 19:30:42 0° 15° (NNE) 3,237 7.4 -11.9°
Reaches altitude 10° 19:33:01 10° 18° (NNE) 2,309 6.7 -12.4°
Maximum altitude 19:38:05 71° 102° (ESE) 814 4.4 -13.4°
Drops below altitude 10° 19:43:09 10° 186° (S) 2,304 7.2 -14.5°
Sets 19:45:27 0° 188° (S) 3,230 8.0 -15.0°
